Weather History for Litchfield, MN

Change the Weather History Date:

Monday, May 27, 2013

  Actual Average Record
Temperature  
Mean Temperature 58 °F -  
Max Temperature 64 °F 74 °F 97 °F (1969)
Min Temperature 53 °F 51 °F 35 °F (1965)
Degree Days  
Heating Degree Days 6    
Growing Degree Days 8 (Base 50)    
Moisture  
Dew Point 54 °F    
Average Humidity 88    
Maximum Humidity 100    
Minimum Humidity 77    
Precipitation  
Precipitation 0.00 in - - ()
Sea Level Pressure  
Sea Level Pressure 29.91 in    
Wind  
Wind Speed 12 mph (East)    
Max Wind Speed 16 mph    
Max Gust Speed 22 mph    
Visibility 8 miles    
Events      
Averages and records for this station are not official NWS values.
T = Trace of Precipitation, MM = Missing Value Source: NWS Daily Summary

Daily Weather History Graph

Daily Weather History Graph

Search for Another Location

Airport:

Trip Planner

Search our weather history database for the weather conditions in past years. The results will help you decide how hot, cold, wet, or windy it might be!

Date:

Astronomy

May. 27, 2013 Rise Set
Actual Time 5:37 AM CDT 8:53 PM CDT
Civil Twilight 5:01 AM CDT 9:29 PM CDT
Nautical Twilight 4:14 AM CDT 10:16 PM CDT
Astronomical Twilight 3:17 AM CDT 11:14 PM CDT
Moon 11:30 PM CDT (5/27) 8:17 AM CDT (5/27)
Length of Visible Light 16h 28m
Length of Day
15h 16m
Waning Gibbous, 91% of the Moon is Illuminated
May 27
Waning Gibbous
May 31
Last Quarter
Jun 8
New
Jun 16
First Quarter
Jun 23
Full

Hourly Weather History & Observations

Time (CDT) Temp. Dew Point Humidity Pressure Visibility Wind Dir Wind Speed Gust Speed Precip Events Conditions
12:13 AM 55.4 °F 50.0 °F 82% 30.03 in 10.0 mi ESE 13.8 mph - N/A   Overcast
12:32 AM 55.4 °F 51.8 °F 88% 30.04 in 10.0 mi ESE 15.0 mph 20.7 mph N/A   Overcast
12:53 AM 55.4 °F 51.8 °F 88% 30.02 in 10.0 mi ESE 12.7 mph - N/A   Overcast
1:13 AM 55.4 °F 51.8 °F 88% 30.01 in 10.0 mi ESE 11.5 mph - N/A   Overcast
1:33 AM 55.4 °F 51.8 °F 88% 30.01 in 10.0 mi ESE 12.7 mph 16.1 mph N/A   Overcast
1:53 AM 55.4 °F 51.8 °F 88% 30.01 in 10.0 mi ESE 12.7 mph 19.6 mph N/A   Overcast
2:13 AM 55.4 °F 51.8 °F 88% 30.03 in 10.0 mi SE 10.4 mph 16.1 mph N/A   Overcast
2:33 AM 55.4 °F 51.8 °F 88% 30.03 in 10.0 mi SE 12.7 mph 17.3 mph N/A   Overcast
2:53 AM 55.4 °F 51.8 °F 88% 30.02 in 7.0 mi SE 15.0 mph 18.4 mph N/A   Overcast
3:13 AM 53.6 °F 51.8 °F 94% 29.98 in 5.0 mi ESE 11.5 mph - N/A   Overcast
3:33 AM 53.6 °F 53.6 °F 100% 29.97 in 7.0 mi ESE 10.4 mph - N/A   Overcast
3:53 AM 53.6 °F 53.6 °F 100% 29.97 in 7.0 mi East 6.9 mph - N/A   Overcast
4:12 AM 55.4 °F 53.6 °F 94% 29.96 in 10.0 mi East 10.4 mph - N/A   Overcast
4:33 AM 55.4 °F 51.8 °F 88% 29.98 in 10.0 mi East 12.7 mph - N/A   Overcast
4:52 AM 55.4 °F 51.8 °F 88% 29.97 in 10.0 mi East 10.4 mph - N/A   Overcast
5:13 AM 55.4 °F 51.8 °F 88% 29.98 in 10.0 mi East 9.2 mph - N/A   Overcast
5:33 AM 55.4 °F 51.8 °F 88% 29.98 in 10.0 mi East 9.2 mph - N/A   Overcast
5:52 AM 55.4 °F 51.8 °F 88% 29.97 in 10.0 mi East 6.9 mph - N/A   Overcast
6:13 AM 55.4 °F 51.8 °F 88% 29.97 in 10.0 mi East 9.2 mph - N/A   Overcast
6:33 AM 55.4 °F 53.6 °F 94% 29.96 in 5.0 mi East 9.2 mph 16.1 mph N/A   Overcast
6:52 AM 53.6 °F 53.6 °F 100% 29.97 in 2.5 mi East 10.4 mph - N/A   Overcast
7:13 AM 53.6 °F 53.6 °F 100% 29.96 in 1.0 mi East 10.4 mph - N/A   Overcast
7:33 AM 53.6 °F 53.6 °F 100% 29.95 in 1.8 mi East 9.2 mph - N/A   Overcast
7:52 AM 53.6 °F 53.6 °F 100% 29.95 in 1.8 mi East 10.4 mph - N/A   Overcast
8:13 AM 53.6 °F 53.6 °F 100% 29.95 in 3.0 mi East 12.7 mph 18.4 mph N/A   Overcast
8:33 AM 53.6 °F 53.6 °F 100% 29.94 in 2.5 mi East 10.4 mph - N/A   Overcast
8:52 AM 53.6 °F 53.6 °F 100% 29.93 in 3.0 mi East 12.7 mph - N/A   Overcast
9:13 AM 53.6 °F 53.6 °F 100% 29.94 in 3.0 mi East 11.5 mph - N/A   Overcast
9:33 AM 55.4 °F 53.6 °F 94% 29.94 in 3.0 mi East 12.7 mph - N/A   Overcast
9:52 AM 55.4 °F 53.6 °F 94% 29.93 in 4.0 mi East 12.7 mph - N/A   Overcast
10:13 AM 55.4 °F 53.6 °F 94% 29.92 in 4.0 mi East 16.1 mph 21.9 mph N/A   Overcast
10:33 AM 55.4 °F 53.6 °F 94% 29.92 in 4.0 mi ESE 15.0 mph 21.9 mph N/A   Overcast
10:52 AM 55.4 °F 53.6 °F 94% 29.92 in 4.0 mi East 10.4 mph 16.1 mph N/A   Overcast
11:13 AM 55.4 °F 55.4 °F 100% 29.92 in 5.0 mi East 15.0 mph 18.4 mph N/A   Overcast
11:33 AM 57.2 °F 55.4 °F 94% 29.90 in 5.0 mi East 11.5 mph 19.6 mph N/A   Overcast
11:52 AM 57.2 °F 55.4 °F 94% 29.89 in 7.0 mi East 12.7 mph - N/A   Overcast
12:13 PM 57.2 °F 53.6 °F 88% 29.88 in 7.0 mi East 16.1 mph - N/A   Overcast
12:33 PM 59.0 °F 55.4 °F 88% 29.89 in 10.0 mi East 12.7 mph - N/A   Overcast
12:52 PM 60.8 °F 55.4 °F 82% 29.89 in 10.0 mi East 11.5 mph 17.3 mph N/A   Overcast
1:13 PM 60.8 °F 55.4 °F 82% 29.89 in 10.0 mi East 13.8 mph 18.4 mph N/A   Overcast
1:33 PM 60.8 °F 55.4 °F 82% 29.89 in 10.0 mi East 12.7 mph - N/A   Overcast
1:52 PM 62.6 °F 55.4 °F 77% 29.88 in 10.0 mi East 16.1 mph - N/A   Overcast
2:13 PM 60.8 °F 55.4 °F 82% 29.88 in 10.0 mi East 13.8 mph 19.6 mph N/A   Overcast
2:33 PM 60.8 °F 55.4 °F 82% 29.88 in 10.0 mi East 12.7 mph - N/A   Overcast
2:52 PM 62.6 °F 55.4 °F 77% 29.88 in 10.0 mi East 10.4 mph - N/A   Overcast
3:13 PM 62.6 °F 55.4 °F 77% 29.89 in 10.0 mi East 10.4 mph - N/A   Overcast
3:32 PM 62.6 °F 55.4 °F 77% 29.89 in 10.0 mi ESE 9.2 mph - N/A   Overcast
3:53 PM 62.6 °F 55.4 °F 77% 29.88 in 10.0 mi East 10.4 mph - N/A   Overcast
4:12 PM 62.6 °F 55.4 °F 77% 29.87 in 10.0 mi East 11.5 mph - N/A   Overcast
4:33 PM 62.6 °F 55.4 °F 77% 29.87 in 10.0 mi East 10.4 mph - N/A   Overcast
4:53 PM 62.6 °F 55.4 °F 77% 29.86 in 10.0 mi East 9.2 mph 17.3 mph N/A   Overcast
5:12 PM 64.4 °F 57.2 °F 77% 29.86 in 10.0 mi ESE 12.7 mph - N/A   Overcast
5:33 PM 62.6 °F 55.4 °F 77% 29.86 in 10.0 mi ESE 13.8 mph - N/A   Overcast
5:52 PM 62.6 °F 55.4 °F 77% 29.85 in 10.0 mi ESE 16.1 mph - N/A   Overcast
6:13 PM 62.6 °F 55.4 °F 77% 29.85 in 10.0 mi East 11.5 mph - N/A   Overcast
6:33 PM 62.6 °F 55.4 °F 77% 29.85 in 10.0 mi ESE 9.2 mph - N/A   Overcast
6:52 PM 60.8 °F 55.4 °F 82% 29.85 in 10.0 mi East 11.5 mph - N/A   Overcast
7:13 PM 60.8 °F 55.4 °F 82% 29.85 in 10.0 mi East 12.7 mph - N/A   Overcast
7:33 PM 60.8 °F 55.4 °F 82% 29.85 in 10.0 mi East 15.0 mph - N/A   Overcast
7:52 PM 60.8 °F 55.4 °F 82% 29.85 in 10.0 mi East 10.4 mph - N/A   Overcast
8:13 PM 60.8 °F 55.4 °F 82% 29.86 in 10.0 mi East 11.5 mph - N/A   Overcast
8:33 PM 59.0 °F 55.4 °F 88% 29.85 in 10.0 mi ESE 10.4 mph - N/A   Overcast
8:52 PM 59.0 °F 55.4 °F 88% 29.85 in 10.0 mi ESE 9.2 mph - N/A   Overcast
9:13 PM 59.0 °F 55.4 °F 88% 29.84 in 10.0 mi East 8.1 mph - N/A   Overcast
9:33 PM 57.2 °F 55.4 °F 94% 29.85 in 10.0 mi East 12.7 mph - N/A   Overcast
9:53 PM 57.2 °F 55.4 °F 94% 29.84 in 10.0 mi ESE 11.5 mph - N/A   Overcast
10:13 PM 57.2 °F 55.4 °F 94% 29.83 in 10.0 mi East 15.0 mph 18.4 mph N/A   Overcast
10:33 PM 57.2 °F 55.4 °F 94% 29.85 in 10.0 mi East 8.1 mph - N/A   Overcast
10:52 PM 57.2 °F 55.4 °F 94% 29.86 in 10.0 mi East 10.4 mph - N/A   Overcast
11:13 PM 57.2 °F 55.4 °F 94% 29.85 in 10.0 mi ESE 10.4 mph - N/A   Overcast
11:33 PM 57.2 °F 55.4 °F 94% 29.84 in 10.0 mi East 8.1 mph - N/A   Overcast
11:52 PM 57.2 °F 55.4 °F 94% 29.85 in 10.0 mi ESE 8.1 mph - N/A   Overcast